TIME,DELAY(SENSOR),PRES,OXYGEN,RAWTEMP,T(OPTODE),TCPHASE,FLUOR,BETA(BETA700),BETA(BETA412),BETA(BETA440),CDOM,C(CSC),ED(ED412.20),ED(ED444.00),ED(ED489.60),ED(ED554.30),LU(LU412.10),LU(LU443.90),LU(LU489.70),LU(LU554.70),COMP,TILTX,TILTY,CHECK
1368246391,5809,852.5700073242188000,30.3857498168945300,557.4829711914062000,4.5638751983642580,57.0137405395507800,56,100,99,78,81,15546,0,0,0,0,2147121353,2147774537,2147571922,2147564973,480,2,13,55104
1368249987,5808,911.0100097656250000,34.1062812805175800,564.0025024414062000,4.3617839813232420,56.4624290466308600,55,98,99,79,81,15546,0,0,0,0,2147124059,2147770477,2147569097,2147567634,1874,2,13,10619
1368253587,5809,918.5300292968750000,33.9464607238769500,564.4276733398438000,4.3485908508300780,56.4895782470703100,55,100,101,77,81,15543,0,0,0,0,2147122404,2147772013,2147572278,2147566683,3527,2,13,56305
1368257187,5809,935.9500122070312000,36.9422111511230500,568.1076049804688000,4.2343521118164060,56.0603599548339840,55,98,99,79,81,15541,0,0,0,0,2147123328,2147776987,2147576100,2147566262,311,2,13,2435
1368260787,5811,936.4299926757812000,36.9625511169433600,569.3425292968750000,4.1959929466247560,56.0666389465332000,54,97,99,78,81,15545,0,0,0,0,2147121069,2147773622,2147571529,2147566290,3277,3,13,57435
1368264387,5809,939.9699707031250000,35.4991302490234400,569.6121215820312000,4.1876139640808105,56.2978286743164060,55,97,100,79,81,15543,0,0,0,0,2147121993,2147770788,2147570377,2147565888,3515,2,13,30170
1368267987,5812,969.5000000000000000,36.7922897338867200,571.0120239257812000,4.1441078186035160,56.1145591735839840,55,98,100,76,80,15547,0,0,0,0,2147123154,2147771382,2147572324,2147568448,91,2,13,60859
1368271587,5810,971.7700195312500000,36.9258193969726560,570.9677734375000000,4.1454830169677730,56.0904808044433600,54,99,99,79,81,15544,0,0,0,0,2147122221,2147771940,2147572754,2147564498,131,2,13,11325
1368275187,5810,974.5200195312500000,37.6478691101074200,570.6790161132812000,4.1544589996337890,55.9819107055664060,55,97,100,77,80,15540,0,0,0,0,2147122660,2147771273,2147571328,2147565110,179,2,13,61444
1368278787,5811,971.0900268554688000,36.9457206726074200,571.7437744140625000,4.1213588714599610,56.0950813293457000,54,97,99,77,83,15535,0,0,0,0,2147121993,2147771209,2147569270,2147568329,87,2,13,18852
1368282387,5810,973.9000244140625000,37.5521583557128900,571.7470703125000000,4.1212558746337890,56.0020103454589840,55,97,100,77,81,15538,0,0,0,0,2147123008,2147765814,2147574262,2147566125,51,2,13,58049
1368285987,5809,976.9000244140625000,38.4756507873535160,571.1787109375000000,4.1389260292053220,55.8599891662597660,56,98,100,78,81,15531,0,0,0,0,2147119634,2147767798,2147572032,2147566820,363,2,13,5135
1368289587,5813,986.1900024414062000,37.6553497314453100,570.0546264648438000,4.1738619804382320,55.9662017822265600,55,97,99,77,82,15528,0,0,0,0,2147123968,2147776402,2147568009,2147566601,81,3,13,57351
1368293187,5810,985.8699951171875000,37.5164909362793000,570.3110961914062000,4.1658940315246580,55.9931793212890600,55,98,100,78,82,15531,0,0,0,0,2147121115,2147771712,2147567341,2147567552,41,2,13,290
1368296787,5810,979.7600097656250000,37.2951583862304700,570.5106201171875000,4.1596951484680180,56.0302696228027340,55,98,100,78,81,15529,0,0,0,0,2147121252,2147766582,2147575232,2147568365,3512,2,13,35574
1368300387,5812,982.7199707031250000,36.9317703247070300,570.9860839843750000,4.1449108123779300,56.0930290222168000,55,98,99,78,81,15529,0,0,0,0,2147123913,2147771702,2147572955,2147567762,3558,2,13,43176
1368303987,5813,976.8300170898438000,39.3754005432128900,571.3712768554688000,4.1329398155212400,55.7278709411621100,56,99,99,77,81,15527,0,0,0,0,2147124315,2147775268,2147570386,2147566162,3351,2,13,24382
1368307587,5808,984.8400268554688000,39.6937103271484400,571.1613769531250000,4.1394629478454590,55.6746406555175800,55,97,99,77,82,15531,0,0,0,0,2147121901,2147766619,2147572928,2147565814,3386,2,13,25220
1368311187,5808,983.2100219726562000,39.1191596984863300,570.9851074218750000,4.1449432373046875,55.7592010498046900,55,101,100,78,82,15528,0,0,0,0,2147120960,2147772534,2147572900,2147567488,2697,2,13,26457
1368314787,5811,990.4400024414062000,39.1915016174316400,570.2349853515625000,4.1682591438293460,55.7364006042480500,55,99,98,79,81,15529,0,0,0,0,2147121910,2147771062,2147571346,2147569929,266,3,13,13948
1368318387,5810,983.8599853515625000,37.3220710754394500,570.2650146484375000,4.1673278808593750,56.0216598510742200,54,98,99,78,81,15529,0,0,0,0,2147121883,2147772955,2147572342,2147565604,70,3,13,37497
1368321987,5809,986.2700195312500000,38.5453910827636700,570.3952026367188000,4.1632790565490720,55.8418312072753900,54,98,101,78,80,15530,0,0,0,0,2147121673,2147772608,2147568484,2147568877,3413,2,13,38214
1368325587,5809,986.7100219726562000,38.3684005737304700,570.5817871093750000,4.1574778556823730,55.8635406494140600,55,97,99,77,80,15476,0,0,0,0,2147121462,2147771748,2147570395,2147566528,224,2,13,33700
1368329187,5812,988.2100219726562000,38.2083396911621100,570.5468750000000000,4.1585640907287600,55.8885688781738300,54,97,99,78,82,15473,0,0,0,0,2147122267,2147770112,2147574756,2147569764,78,3,13,26699
1368332787,5809,993.2399902343750000,38.8439292907714840,570.2390747070312000,4.1681289672851560,55.7933082580566400,55,98,101,78,81,15506,0,0,0,0,2147121554,2147770724,2147574610,2147568365,210,2,13,22594
1368336387,5807,983.0700073242188000,38.5813102722168000,570.8474121093750000,4.1492228507995605,55.8413085937500000,56,98,101,77,81,15505,0,0,0,0,2147125357,2147768923,2147569974,2147567396,413,2,13,46224
1368339987,5810,991.0800170898438000,40.5059394836425800,571.4138793945312000,4.1316151618957520,55.5542411804199200,54,98,100,78,81,15503,0,0,0,0,2147121261,2147771986,2147567122,2147566646,578,2,13,65138
1368343587,5808,985.4500122070312000,39.9944000244140600,571.8759155273438000,4.1172499656677250,55.6379203796386700,54,99,100,78,81,15506,0,0,0,0,2147121828,2147772553,2147568886,2147567881,3589,2,13,21367
1368347187,5808,981.8599853515625000,39.2222900390625000,572.0018920898438000,4.1133351325988770,55.7561492919921900,55,99,99,78,82,15505,0,0,0,0,2147121801,2147774811,2147571904,2147570916,3585,2,13,50408
1368350787,5810,982.6500244140625000,39.9553604125976560,571.8958740234375000,4.1166310310363770,55.6442298889160160,56,97,101,78,81,15505,0,0,0,0,2147120804,2147773568,2147570038,2147565156,181,3,13,19572
1368354387,5810,982.9099731445312000,38.7791404724121100,572.0017700195312000,4.1133379936218260,55.8242416381835940,54,98,100,78,81,15502,0,0,0,0,2147124077,2147776493,2147568694,2147568630,27,2,13,19327
1368357987,5809,981.6900024414062000,39.5905799865722660,572.2891845703125000,4.1044011116027830,55.6971206665039060,55,97,99,78,82,15501,0,0,0,0,2147123474,2147764160,2147569929,2147568219,276,3,13,40898
1368361587,5807,981.0599975585938000,39.8877983093261700,572.9285888671875000,4.0845150947570800,55.6606597900390600,55,98,99,79,82,15501,0,0,0,0,2147122834,2147773184,2147573568,2147567433,103,2,13,50762
1368365187,5810,985.7500000000000000,40.0217399597168000,571.8168945312500000,4.1190848350524900,55.6302986145019500,56,98,99,78,81,15503,0,0,0,0,2147122294,2147773568,2147573924,2147565814,487,2,13,48606
1368368787,5810,987.2800292968750000,40.4562492370605500,571.7346801757812000,4.1216430664062500,55.5665702819824200,55,98,100,79,81,15499,0,0,0,0,2147123401,2147769929,2147572288,2147564900,840,2,13,3867
1368372387,5807,990.4400024414062000,37.7917404174804700,571.4307861328125000,4.1310901641845700,55.9669990539550800,55,98,100,78,81,15499,0,0,0,0,2147120155,2147771931,2147567451,2147567954,448,2,13,60220
1368375987,5810,992.0300292968750000,37.9198303222656250,570.5197753906250000,4.1594071388244630,55.9317398071289060,55,97,100,78,82,15499,0,0,0,0,2147125897,2147771657,2147572242,2147565193,106,2,13,64272
1368379587,5808,994.4199829101562000,38.2155799865722660,570.5114135742188000,4.1596698760986330,55.8911399841308600,56,98,100,78,81,15500,0,0,0,0,2147124425,2147771547,2147572955,2147565275,55,3,13,1698
1368383187,5809,992.2199707031250000,38.2695503234863300,570.2396240234375000,4.1681141853332520,55.8743515014648440,54,97,98,77,82,15496,0,0,0,0,2147119963,2147772928,2147569307,2147565156,3571,2,13,18964
1368386787,5810,991.3599853515625000,36.2424507141113300,570.6790161132812000,4.1544609069824220,56.1904411315918000,56,99,99,77,81,15499,0,0,0,0,2147120429,2147770249,2147571081,2147569389,167,2,13,39517
1368390355,5806,984.9299926757812000,39.3381118774414060,571.4343261718750000,4.1309809684753420,55.7317695617675800,54,99,99,78,81,15495,0,0,0,0,2147120146,2147767588,2147571428,2147564489,3264,2,13,25670
